www.pogodaiklimat.ru
ПОГОДА в Тиране Лапрака
Время
(UTC), дата
06 24.09
09 24.09
12 24.09
15 24.09
18 24.09
21 24.09
00 25.09
03 25.09
06 25.09
09 25.09
12 25.09
15 25.09
18 25.09
21 25.09
00 26.09
03 26.09
06 26.09
12 26.09
15 26.09
18 26.09
21 26.09
00 27.09
03 27.09
06 27.09
09 27.09
12 27.09
15 27.09
18 27.09
21 27.09
00 28.09
03 28.09
06 28.09
09 28.09
12 28.09
15 28.09
18 28.09
21 28.09
00 29.09
03 29.09
06 29.09
09 29.09
12 29.09
15 29.09
18 29.09
21 29.09
00 30.09
03 30.09
06 30.09
09 30.09
12 30.09
15 30.09
18 30.09
21 30.09
00 1.10
03 1.10
Ветер
(напр.,м/с)
Видим. Явления Облачность Т
(С)
Тd
(С)
f
(%)
Тe
(С)
Тes
(С)
Комфортность P
(гПа)
Po
(гПа)
Тmin
(С)
Tmax
(С)
R
(мм)
R24
(мм)
S
(см)
штиль 0 15 км 6/6 1080 м
[Cu Sc]
+17.6 +16.8 95 +18 +18 1013.2 1000.5 +17.4 20
ЮВ 4 15 км 6/6 1080 м
[Cu Sc]
+22.0 +18.1 79 +27 +29 душно 1013.7 1001.2
С 4 8000 м слаб. дождь 10/10 900 м
[Sc]
+23.0 +19.3 80 +29 +29 очень
душно
1014.5 1002.0
Ю 2 20 км {ливн. дождь, дождь} 1/1 1080 м
[Cu hum]
+24.4 +20.3 78 +30 +32 очень
душно
1013.3 1000.8
СВ 4 10 км {ливн. дождь, дождь} 4/1 1200 м
[Sc Cs]
+22.2 +19.3 84 +28 +28 душно 1013.4 1000.8 +25.5 13
штиль 0 10 км ясно +20.6 +19.8 95 +25 +25 комфорт 1013.4 1000.8
штиль 0 10 км ясно +19.0 +18.2 95 +21 +21 комфорт 1013.6 1000.9
штиль 0 10 км ясно +18.4 +16.8 90 +19 +19 1012.6 999.9
штиль 0 10 км 10/5 1500 м
[Sc As op Ci sp]
+19.2 +15.1 77 +21 +21 комфорт 1010.9 998.3 +17.6
ЮВ 6 10 км 5/3 1500 м
[Sc Ac trans]
+26.0 +10.6 38 +27 +29 жарко 1008.7 996.3
ЮВ 4 10 км 8/4 1200 м
[Cu hum Ac trans]
+30.4 +12.3 33 +31 +34 жарко 1006.2 994.1
ЮЗ 4 10 км 10/8 1200 м
[Sc Ac und]
+27.6 +11.2 36 +28 +29 жарко 1004.6 992.4
ЮВ 4 10 км в посл. час дождь 10/8 1080 м
[Sc Ac und]
+25.6 +12.1 43 +27 +27 жарко 1003.1 990.8 +30.2 0.0
ЮВ 12 10 км 4/4 1200 м
[Sc]
+25.2 +13.1 47 +27 +27 жарко 1000.3 988.1
ЮЗ 4 8000 м слаб. дождь 10/10 900 м
[Sc]
+25.0 +20.2 75 +31 +31 очень
душно
997.5 985.3
З 6 10 км {гроза} 10/10 1000 м
[Sc]
+19.6 +18.2 92 +22 +22 комфорт 997.9 985.5
ЮВ 2 10 км {гроза} 9/9 800 м
[Sc]
+19.2 +18.4 95 +22 +22 комфорт 998.5 986.0 +18.4 30
ЮЗ 4 8000 м дымка {дождь} 9/9 600 м
[Sc]
+17.0 +14.6 86 +17 +17 1000.2 987.6 9
ЮВ 8 10 км {дождь} 5/5 1000 м
[Cu med, cong]
+19.0 +13.9 72 +19 +20 1000.2 987.7
ЮВ 4 9000 м град {дождь} 10/10 300 м
[Cb calv]
+17.2 +13.7 80 +17 +17 1002.0 989.4 +20.8 11
ЮВ 2 10 км {гроза} 3/1 1200 м
[Cu hum Ac trans]
+14.0 +13.9 99 +13 +13 1005.8 993.0
ЮВ 4 10 км {гроза} 3/1 1200 м
[Cu hum Ac trans]
+14.0 +9.4 74 +13 +13 1007.4 994.6 2
ЮВ 2 10 км 3/3 1200 м
[Cu hum Ac trans]
+14.0 +10.2 78 +14 +14 1008.5 995.7
штиль 0 20 км 1/1 1200 м
[St]
+15.0 +9.0 67 +15 +16 1008.7 995.9 +13.5 2
штиль 0 20 км 6/6 1300 м
[Sc]
+22.0 +7.3 39 +23 +28 комфорт 1009.9 997.4
ЮЗ 8 20 км 6/6 1200 м
[Cu Sc]
+24.8 +7.5 33 +25 +26 комфорт 1009.9 997.5
ЮЗ 6 15 км 6/6 1000 м
[Cu med, cong]
+25.6 +9.4 36 +26 +26 жарко 1009.7 997.4
штиль 0 10 км 10/10 800 м
[Sc]
+22.6 +10.4 46 +24 +24 комфорт 1009.2 996.8 +25.6
ЮВ 4 10 км 8/3 1200 м
[Sc Ci sp]
+21.2 +10.9 52 +23 +23 комфорт 1009.9 997.4
ЮВ 2 9000 м дождь {пыльная буря} 10/8 1000 м
[Sc Ac und]
+20.0 +17.2 84 +23 +23 комфорт 1009.6 997.0 0.6
ЮЗ 4 9000 м дождь {пыльная буря, метель} 10/10 900 м
[Sc]
+19.8 +15.6 77 +22 +22 комфорт 1009.0 996.4
СЗ 4 10 км слаб. дождь 10/10 1080 м
[Sc]
+17.6 +17.6 100 +17 +17 1008.3 995.7 +17.4 3
ЮЗ 2 9000 м сильн. ливневой дождь 10/10 1000 м
[Cb cap]
+19.2 +18.6 96 +22 +22 комфорт 1012.5 999.9
СЗ 2 10 км {ливн. дождь, дождь} 9/6 800 м
[Cu Sc Ac trans]
+24.2 +15.9 60 +27 +30 жарко 1012.2 999.8 8
ЮЗ 4 20 км {ливн. дождь} 9/6 1000 м
[Cu Sc As op]
+23.0 +13.2 54 +26 +26 жарко 1011.5 999.1
Ю 4 10 км 4/4 1200 м
[Sc]
+21.0 +15.5 71 +25 +25 комфорт 1011.7 999.2 +25.2 8
штиль 0 10 км в посл. час дождь 9/5 1000 м
[Sc Ac trans]
+19.2 +17.0 87 +21 +21 комфорт 1013.0 1000.4
штиль 0 10 км слаб. дождь 10/10 800 м
[Sc]
+18.0 +18.0 100 +18 +18 1013.3 1000.6 2
штиль 0 10 км слаб. дождь 10/10 800 м
[Sc]
+17.0 +17.0 100 +17 +17 1013.5 1000.7
штиль 0 15 км {дождь, туман} 6/4 1000 м
[Sc Ci fib]
+17.0 +16.1 94 +17 +18 1014.0 1001.2 +16.4 5
штиль 0 15 км {дождь} 8/8 1000 м
[Cu Sc]
+20.0 +15.4 75 +22 +24 комфорт 1014.9 1002.3
СВ 4 15 км в посл. час ливневой дождь 10/10 1000 м
[Cu Sc]
+22.4 +21.6 95 +30 +30 очень
душно
1014.8 1002.3 3
З 2 10 км {ливн. дождь, дождь} 8/4 1000 м
[Cu med, cong Ac trans]
+20.4 +15.1 72 +24 +24 комфорт 1014.8 1002.2
штиль 0 10 км {ливн. дождь, дождь} 9/9 1000 м
[Cu Sc]
+18.0 +16.0 88 +18 +18 1015.6 1002.8 +22.8 7
ЮВ 2 10 км {дождь} 6/3 1200 м
[Cu hum Ac trans]
+16.0 +15.9 99 +16 +16 1016.2 1003.3
штиль 0 10 км 5/4 1000 м
[Cu med, cong Ac trans]
+15.6 +14.8 95 +15 +15 1015.9 1003.1
штиль 0 10 км 10/10 900 м
[Cu Sc]
+15.0 +15.0 100 +15 +15 1014.8 1001.9
штиль 0 15 км {морось} 1/0
[Ac trans]
+16.0 +14.4 90 +16 +17 1014.3 1001.5 +14.6
ЮВ 4 15 км 4/4 1300 м
[Cu med, cong]
+20.0 +13.7 67 +22 +25 комфорт 1014.1 1001.5
С 6 15 км 6/6 1300 м
[Cu med, cong]
+22.4 +8.1 40 +24 +25 комфорт 1013.0 1000.4
СЗ 6 10 км 4/4 1000 м
[Cu med, cong]
+23.2 +8.5 39 +24 +25 комфорт 1011.9 999.4
штиль 0 10 км 1/0
[Ac trans]
+19.0 +12.1 64 +20 +20 1012.3 999.6 +23.4
ЮВ 4 10 км ясно +16.4 +13.1 81 +16 +16 1012.7 999.9
штиль 0 10 км ясно +15.0 +12.5 85 +15 +15 1012.3 999.5
штиль 0 10 км ясно +14.4 +10.9 79 +14 +14 1011.8 998.9
Местоположение метеостанции Тирана Лапрака (Албания): широта 41.33 долгота 19.07 высота над уровнем моря 90 м.
В архиве по умолчанию представлена погода в Тиране Лапрака за последнюю неделю. Архивные данные за месяц целиком и за предыдущие месяцы, начиная с января 2011 года, Вы можете получить, выбрав интересующий диапазон дат из раскрывающегося списка и нажав кнопку "Найти!".
*Определитесь, кто Вы:
Внимание! Время в таблицах - всемирное. Для получения местного времени необходимо прибавить поправку, которая равна 1 ч.
Смотрите также архив погоды в соседних городах и на ближайших метеорологических станциях:
Партнеры нашего сайта:      
Пояснения к столбцам:
  • Ветер - указаны скорость ветра в м/с - средняя за 10 мин, порывы в срок и между сроками (в фигурных скобках) и направление, откуда дует ветер: С - северный,
  • СВ - северо-восточный, В - восточный, ЮВ - юго-восточный, Ю - южный, ЮЗ - юго-западный, З - западный, СЗ - северо-западный.
  • Видимость - горизонтальная дальность видимости в метрах или километрах. При видимости от 1 до 10 км при отсутствии осадков обычно наблюдается дымка, при ухудшении видимости до 1 км и менее - туман. В сухую погоду видимость может ухудшаться дымом, пылью или мглою.
  • Явления - указаны атмосферные явления, наблюдавшиеся в срок или в последний час перед сроком; фигурными скобками обозначены явления, наблюдавшиеся между сроками (за 1-3 часа до срока); квадратными скобками обозначены град или гололедные отложения с указанием их диаметра в мм.
  • Облачность - указаны через наклонную черту общая и нижняя облачность в баллах и высота нижней границы облаков в метрах; квадратными скобками обозначены формы облаков: Ci - перистые, Cs - перисто-слоистые, Cc - перисто-кучевые, Ac - высококучевые, As - высокослоистые, Sc - слоисто-кучевые, Ns - слоисто-дождевые, Cu - кучевые, Cb - кучево-дождевые. Подробнее классификацию облаков см. в Атласе облаков (PDF).
  • T - Температура воздуха - температура, измеренная на высоте 2 м над землей.
  • Td - Температура точки росы - температура, при понижении до которой содержащийся в воздухе водяной пар достигнет насыщения.
  • f - Относительная влажность воздуха - влажноcть воздуха, измеренная на высоте 2 м над землей.
  • Te - Эффективная температура - температура, которую ощущает одетый по сезону человек в тени. Характеристика душности погоды. При расчете учитывается влияние влажности воздуха и скорости ветра на теплоощущения человека.
  • Tes - Эффективная температура на солнце - температура, которую ощущает человек, с поправкой на солнечный нагрев. Характеристика знойности погоды. Зависит от высоты солнца над горизонтом, облачности и скорости ветра. Ночью, в пасмурную погоду, а также при ветре 12 м/с и более поправка равна нулю.
  • P - Атмосферное давление - приведенное к уровню моря атмосферное давление.
  • Po - Атмосферное давление - измеренное на уровне метеостанции атмосферное давление.
  • Tmin - Минимальная температура - минимум температуры воздуха на высоте 2 м над землей.
  • Tmax - Максимальная температура - максимум температуры воздуха на высоте 2 м над землей.
  • R - Количество осадков - Количество выпавших осадков за период времени, мм. При наведении курсора мыши на число - период времени, за который выпало указанное количество осадков.
  • R24 - Количество осадков - Количество выпавших осадков за 24 часа, мм.
  • S - Снежный покров - Высота снежного покрова, см. При наведении курсора мыши на число - состояние снежного покрова и степень покрытия местности в баллах.